QPF
0.01 0.01 0.01 0.01 0.00 0.00 0.01 0.00 0.00 0.00 0.00 0.01 0.01 0.01 0.01 0.02 0.03 0.03 0.03 0.03 0.04 0.03 0.03 0.02 0.02 0.01 0.01 0.01 0.01 0.01 0.01 0.02 0.03 0.06 0.08 0.05 0.04 0.03 0.02 0.02 0.02 0.02 0.02 0.02
0.01 0.01 0.01 0.00 0.00 0.01 0.01 0.01 0.00 0.00 0.00 0.01 0.01 0.01 0.02 0.02 0.05 0.04 0.03 0.04 0.04 0.04 0.04 0.03 0.02 0.01 0.01 0.01 0.02 0.02 0.02 0.04 0.08 0.12 0.08 0.06 0.04 0.03 0.03 0.02 0.01 0.02 0.03 0.03
0.01 0.00 0.00 0.00 0.01 0.00 0.01 0.01 0.00 0.00 0.01 0.01 0.01 0.02 0.03 0.03 0.04 0.03 0.03 0.04 0.04 0.04 0.03 0.02 0.02 0.02 0.02 0.02 0.03 0.03 0.04 0.05 0.06 0.05 0.03 0.02 0.02 0.02 0.02 0.02 0.02 0.02 0.03 0.04
0.01 0.01 0.00 0.00 0.01 0.01 0.01 0.01 0.01 0.01 0.01 0.02 0.01 0.01 0.02 0.03 0.03 0.02 0.03 0.03 0.04 0.03 0.02 0.02 0.02 0.03 0.03 0.03 0.03 0.03 0.02 0.04 0.05 0.07 0.08 0.04 0.02 0.02 0.01 0.02 0.02 0.02 0.03 0.03
0.00 0.00 0.00 0.00 0.01 0.01 0.01 0.00 0.01 0.01 0.01 0.01 0.01 0.01 0.02 0.02 0.02 0.01 0.02 0.02 0.03 0.02 0.01 0.01 0.02 0.03 0.03 0.02 0.02 0.02 0.01 0.03 0.05 0.07 0.08 0.05 0.03 0.02 0.02 0.01 0.01 0.01 0.02 0.02
0.00 0.00 0.00 0.00 0.01 0.01 0.01 0.00 0.01 0.02 0.03 0.01 0.00 0.00 0.01 0.01 0.01 0.01 0.01 0.01 0.01 0.01 0.01 0.01 0.02 0.03 0.02 0.02 0.01 0.01 0.01 0.02 0.02 0.03 0.05 0.04 0.03 0.03 0.03 0.03 0.02 0.02 0.01 0.02
0.00 0.00 0.00 0.00 0.01 0.01 0.01 0.01 0.02 0.02 0.02 0.01 0.00 0.00 0.00 0.00 0.00 0.00 0.00 0.01 0.01 0.02 0.01 0.01 0.01 0.02 0.02 0.01 0.01 0.01 0.01 0.01 0.02 0.01 0.02 0.03 0.05 0.03 0.03 0.03 0.02 0.02 0.01 0.02
0.00 0.00 0.00 0.00 0.00 0.01 0.01 0.00 0.01 0.01 0.00 0.00 0.00 0.00 0.00 0.00 0.00 0.00 0.01 0.01 0.01 0.01 0.01 0.01 0.02 0.03 0.02 0.01 0.01 0.00 0.00 0.01 0.01 0.01 0.00 0.01 0.02 0.01 0.02 0.02 0.02 0.02 0.02 0.02
0.00 0.00 0.00 0.01 0.00 0.00 0.01 0.00 0.00 0.00 0.00 0.00 0.00 0.00 0.01 0.01 0.00 0.01 0.01 0.01 0.01 0.01 0.01 0.01 0.03 0.02 0.02 0.01 0.00 0.00 0.00 0.00 0.01 0.00 0.00 0.01 0.01 0.01 0.01 0.01 0.02 0.02 0.03 0.03
0.00 0.00 0.00 0.00 0.00 0.00 0.00 0.00 0.00 0.00 0.01 0.00 0.00 0.00 0.00 0.01 0.01 0.01 0.01 0.01 0.01 0.01 0.02 0.02 0.02 0.02 0.01 0.01 0.00 0.01 0.00 0.00 0.00 0.00 0.00 0.00 0.00 0.01 0.01 0.01 0.01 0.01 0.02 0.03
0.00 0.00 0.00 0.01 0.01 0.00 0.00 0.00 0.00 0.00 0.00 0.00 0.00 0.01 0.01 0.01 0.01 0.01 0.01 0.01 0.01 0.01 0.02 0.02 0.02 0.02 0.02 0.01 0.00 0.01 0.01 0.00 0.00 0.00 0.00 0.00 0.00 0.01 0.02 0.01 0.01 0.02 0.02 0.03
0.00 0.00 0.00 0.00 0.00 0.00 0.00 0.00 0.00 0.00 0.00 0.00 0.00 0.00 0.01 0.01 0.00 0.00 0.01 0.01 0.01 0.02 0.02 0.02 0.02 0.02 0.01 0.01 0.00 0.01 0.01 0.00 0.00 0.00 0.00 0.00 0.01 0.01 0.01 0.01 0.02 0.02 0.03 0.05
0.00 0.00 0.00 0.00 0.00 0.00 0.00 0.00 0.00 0.00 0.00 0.00 0.00 0.00 0.00 0.01 0.00 0.00 0.01 0.01 0.01 0.02 0.01 0.01 0.01 0.02 0.02 0.01 0.01 0.00 0.01 0.00 0.01 0.02 0.02 0.02 0.02 0.03 0.03 0.03 0.03 0.04 0.05 0.06
0.00 0.00 0.00 0.00 0.00 0.00 0.00 0.00 0.00 0.00 0.00 0.00 0.00 0.00 0.00 0.00 0.00 0.00 0.01 0.01 0.01 0.02 0.02 0.01 0.01 0.02 0.02 0.01 0.01 0.00 0.01 0.01 0.03 0.04 0.05 0.08 0.09 0.07 0.06 0.05 0.05 0.05 0.06 0.06
0.00 0.00 0.00 0.00 0.00 0.00 0.00 0.00 0.00 0.00 0.00 0.00 0.00 0.00 0.00 0.01 0.01 0.01 0.01 0.01 0.01 0.01 0.01 0.01 0.01 0.02 0.03 0.03 0.02 0.02 0.02 0.04 0.06 0.08 0.12 0.15 0.16 0.16 0.13 0.10 0.08 0.06 0.04 0.04
0.00 0.00 0.00 0.00 0.00 0.00 0.00 0.00 0.00 0.00 0.00 0.00 0.00 0.00 0.01 0.01 0.02 0.02 0.02 0.02 0.01 0.01 0.01 0.01 0.01 0.01 0.02 0.01 0.02 0.02 0.03 0.06 0.09 0.14 0.18 0.18 0.16 0.13 0.11 0.09 0.08 0.07 0.05 0.03
0.00 0.00 0.00 0.00 0.00 0.00 0.00 0.00 0.00 0.00 0.00 0.00 0.00 0.00 0.01 0.01 0.02 0.02 0.02 0.02 0.02 0.01 0.01 0.01 0.01 0.01 0.02 0.01 0.01 0.02 0.04 0.05 0.08 0.12 0.13 0.10 0.06 0.05 0.05 0.04 0.03 0.03 0.02 0.02
0.00 0.00 0.00 0.00 0.00 0.00 0.00 0.00 0.00 0.00 0.00 0.00 0.00 0.01 0.01 0.01 0.01 0.01 0.01 0.01 0.01 0.01 0.01 0.01 0.01 0.01 0.01 0.01 0.01 0.01 0.02 0.02 0.04 0.04 0.04 0.03 0.02 0.02 0.02 0.02 0.02 0.01 0.01 0.01
0.00 0.00 0.00 0.00 0.00 0.00 0.00 0.00 0.00 0.00 0.01 0.00 0.00 0.01 0.01 0.01 0.01 0.01 0.01 0.01 0.01 0.01 0.01 0.01 0.01 0.00 0.01 0.01 0.01 0.01 0.01 0.01 0.02 0.02 0.02 0.02 0.02 0.02 0.02 0.01 0.00 0.00 0.01 0.02
0.00 0.00 0.00 0.00 0.00 0.00 0.00 0.00 0.00 0.00 0.01 0.00 0.00 0.00 0.00 0.01 0.01 0.01 0.01 0.01 0.00 0.01 0.00 0.00 0.00 0.00 0.01 0.02 0.01 0.01 0.01 0.01 0.01 0.02 0.02 0.02 0.02 0.02 0.02 0.01 0.02 0.02 0.03 0.04
0.00 0.00 0.00 0.00 0.00 0.00 0.00 0.00 0.00 0.00 0.00 0.00 0.00 0.01 0.00 0.01 0.01 0.01 0.01 0.00 0.00 0.00 0.00 0.00 0.01 0.01 0.01 0.01 0.01 0.01 0.01 0.01 0.01 0.01 0.01 0.01 0.01 0.01 0.01 0.01 0.02 0.03 0.04 0.04
0.00 0.00 0.00 0.00 0.00 0.00 0.00 0.00 0.00 0.00 0.00 0.00 0.00 0.01 0.01 0.01 0.01 0.01 0.01 0.01 0.00 0.00 0.00 0.01 0.01 0.01 0.02 0.01 0.01 0.01 0.01 0.01 0.01 0.01 0.01 0.01 0.01 0.01 0.01 0.01 0.02 0.03 0.03 0.03
0.01 0.00 0.00 0.00 0.00 0.00 0.00 0.00 0.00 0.00 0.00 0.01 0.01 0.01 0.01 0.01 0.01 0.01 0.01 0.01 0.00 0.00 0.01 0.01 0.02 0.02 0.02 0.01 0.01 0.01 0.01 0.02 0.02 0.01 0.01 0.02 0.02 0.02 0.02 0.03 0.02 0.02 0.03 0.02
0.01 0.00 0.01 0.01 0.00 0.00 0.00 0.00 0.00 0.00 0.00 0.00 0.00 0.01 0.01 0.01 0.01 0.01 0.01 0.01 0.00 0.00 0.01 0.02 0.02 0.02 0.02 0.01 0.01 0.01 0.01 0.01 0.01 0.02 0.02 0.02 0.02 0.02 0.03 0.03 0.02 0.02 0.02 0.01
0.01 0.01 0.01 0.01 0.01 0.01 0.01 0.00 0.00 0.00 0.00 0.00 0.01 0.01 0.01 0.01 0.01 0.01 0.00 0.00 0.01 0.01 0.02 0.02 0.02 0.02 0.02 0.01 0.01 0.01 0.02 0.02 0.01 0.02 0.02 0.02 0.02 0.02 0.02 0.02 0.03 0.03 0.02 0.02
0.00 0.01 0.01 0.01 0.02 0.01 0.01 0.01 0.01 0.01 0.01 0.01 0.01 0.01 0.01 0.00 0.00 0.00 0.00 0.00 0.01 0.02 0.03 0.03 0.03 0.02 0.01 0.01 0.02 0.02 0.02 0.02 0.01 0.01 0.01 0.01 0.02 0.02 0.02 0.03 0.03 0.03 0.03 0.03
MSLP
1007.04 1007.87 1008.52 1008.97 1009.25 1009.40 1009.45 1009.45 1009.41 1009.32 1009.14 1008.86 1008.44 1007.90 1007.25 1006.57 1005.92 1005.37 1004.98 1004.76 1004.72 1004.80 1004.95 1005.10 1005.20 1005.20 1005.10 1004.93 1004.71 1004.49 1004.32 1004.21 1004.17 1004.19 1004.24 1004.29 1004.33 1004.34 1004.33 1004.32 1004.32 1004.36 1004.46 1004.61
1007.83 1008.55 1009.06 1009.40 1009.58 1009.68 1009.75 1009.81 1009.87 1009.89 1009.82 1009.60 1009.19 1008.59 1007.83 1006.98 1006.13 1005.39 1004.82 1004.47 1004.35 1004.41 1004.60 1004.82 1005.01 1005.13 1005.14 1005.06 1004.93 1004.78 1004.66 1004.61 1004.62 1004.69 1004.79 1004.90 1004.98 1005.03 1005.05 1005.05 1005.06 1005.11 1005.21 1005.37
1008.44 1009.01 1009.39 1009.60 1009.72 1009.81 1009.94 1010.12 1010.34 1010.52 1010.60 1010.48 1010.11 1009.46 1008.59 1007.56 1006.50 1005.53 1004.74 1004.21 1003.95 1003.94 1004.11 1004.36 1004.63 1004.83 1004.95 1004.98 1004.94 1004.89 1004.85 1004.86 1004.94 1005.07 1005.22 1005.38 1005.50 1005.58 1005.61 1005.63 1005.65 1005.70 1005.80 1005.97
1008.85 1009.27 1009.50 1009.61 1009.69 1009.82 1010.06 1010.42 1010.84 1011.24 1011.51 1011.53 1011.22 1010.56 1009.58 1008.38 1007.09 1005.87 1004.83 1004.07 1003.62 1003.47 1003.56 1003.79 1004.08 1004.35 1004.55 1004.67 1004.73 1004.77 1004.82 1004.92 1005.07 1005.26 1005.48 1005.68 1005.84 1005.95 1006.01 1006.03 1006.06 1006.11 1006.22 1006.39
1009.10 1009.35 1009.44 1009.48 1009.55 1009.76 1010.16 1010.73 1011.40 1012.05 1012.53 1012.72 1012.50 1011.84 1010.79 1009.43 1007.93 1006.45 1005.14 1004.12 1003.45 1003.11 1003.07 1003.22 1003.47 1003.75 1003.98 1004.17 1004.31 1004.44 1004.58 1004.76 1004.99 1005.26 1005.55 1005.81 1006.02 1006.16 1006.24 1006.28 1006.31 1006.37 1006.48 1006.65
1009.25 1009.33 1009.30 1009.29 1009.39 1009.70 1010.27 1011.07 1011.99 1012.89 1013.60 1013.96 1013.85 1013.23 1012.12 1010.65 1008.96 1007.26 1005.71 1004.44 1003.52 1002.97 1002.75 1002.76 1002.92 1003.15 1003.38 1003.59 1003.77 1003.96 1004.18 1004.45 1004.76 1005.11 1005.47 1005.80 1006.06 1006.25 1006.36 1006.42 1006.46 1006.52 1006.62 1006.79
1009.33 1009.27 1009.15 1009.11 1009.25 1009.68 1010.41 1011.41 1012.56 1013.68 1014.59 1015.11 1015.12 1014.55 1013.45 1011.90 1010.11 1008.25 1006.51 1005.02 1003.89 1003.12 1002.70 1002.54 1002.57 1002.69 1002.86 1003.04 1003.24 1003.46 1003.73 1004.06 1004.46 1004.89 1005.32 1005.72 1006.05 1006.29 1006.44 1006.52 1006.57 1006.62 1006.72 1006.87
1009.38 1009.21 1009.04 1008.99 1009.18 1009.70 1010.56 1011.72 1013.03 1014.32 1015.38 1016.03 1016.14 1015.65 1014.59 1013.06 1011.23 1009.30 1007.46 1005.84 1004.54 1003.59 1002.98 1002.65 1002.51 1002.50 1002.56 1002.67 1002.83 1003.05 1003.35 1003.73 1004.18 1004.68 1005.19 1005.66 1006.05 1006.34 1006.53 1006.64 1006.70 1006.75 1006.83 1006.96
1009.38 1009.17 1008.98 1008.94 1009.18 1009.77 1010.71 1011.95 1013.34 1014.71 1015.85 1016.58 1016.77 1016.37 1015.40 1013.96 1012.20 1010.31 1008.47 1006.82 1005.44 1004.37 1003.62 1003.12 1002.81 1002.64 1002.57 1002.58 1002.67 1002.85 1003.14 1003.55 1004.04 1004.60 1005.16 1005.69 1006.14 1006.48 1006.71 1006.84 1006.91 1006.95 1007.01 1007.11
1009.32 1009.12 1008.96 1008.97 1009.26 1009.88 1010.84 1012.08 1013.46 1014.81 1015.95 1016.70 1016.96 1016.65 1015.81 1014.52 1012.92 1011.18 1009.46 1007.87 1006.51 1005.41 1004.56 1003.93 1003.47 1003.15 1002.93 1002.82 1002.81 1002.94 1003.20 1003.59 1004.10 1004.69 1005.29 1005.86 1006.36 1006.73 1006.99 1007.14 1007.21 1007.25 1007.28 1007.34
1009.17 1009.06 1009.00 1009.08 1009.41 1010.04 1010.96 1012.13 1013.41 1014.66 1015.71 1016.43 1016.70 1016.49 1015.80 1014.72 1013.36 1011.86 1010.36 1008.94 1007.69 1006.62 1005.74 1005.04 1004.46 1004.00 1003.64 1003.40 1003.29 1003.33 1003.53 1003.90 1004.39 1004.97 1005.59 1006.18 1006.69 1007.08 1007.36 1007.52 1007.59 1007.62 1007.63 1007.65
1008.96 1009.01 1009.09 1009.28 1009.67 1010.28 1011.13 1012.16 1013.27 1014.35 1015.25 1015.87 1016.13 1016.00 1015.48 1014.64 1013.56 1012.37 1011.14 1009.97 1008.89 1007.93 1007.08 1006.33 1005.68 1005.11 1004.63 1004.27 1004.05 1003.99 1004.13 1004.44 1004.89 1005.44 1006.03 1006.60 1007.10 1007.49 1007.76 1007.92 1007.99 1008.01 1008.00 1008.00
1008.74 1009.00 1009.26 1009.59 1010.04 1010.64 1011.38 1012.24 1013.14 1014.00 1014.71 1015.20 1015.42 1015.35 1014.99 1014.39 1013.62 1012.74 1011.84 1010.93 1010.07 1009.25 1008.47 1007.73 1007.03 1006.38 1005.80 1005.34 1005.02 1004.88 1004.93 1005.16 1005.55 1006.04 1006.57 1007.09 1007.55 1007.91 1008.15 1008.30 1008.36 1008.37 1008.36 1008.34
1008.61 1009.09 1009.56 1010.03 1010.55 1011.12 1011.76 1012.44 1013.11 1013.72 1014.23 1014.57 1014.73 1014.69 1014.48 1014.10 1013.62 1013.06 1012.46 1011.84 1011.19 1010.53 1009.85 1009.14 1008.42 1007.72 1007.08 1006.53 1006.13 1005.91 1005.88 1006.03 1006.33 1006.73 1007.17 1007.61 1008.00 1008.30 1008.50 1008.62 1008.67 1008.68 1008.66 1008.63
1008.65 1009.36 1010.01 1010.62 1011.19 1011.74 1012.26 1012.76 1013.21 1013.59 1013.89 1014.09 1014.18 1014.16 1014.07 1013.89 1013.66 1013.38 1013.06 1012.68 1012.24 1011.73 1011.14 1010.48 1009.77 1009.05 1008.37 1007.78 1007.32 1007.03 1006.92 1006.99 1007.19 1007.48 1007.82 1008.16 1008.45 1008.66 1008.81 1008.89 1008.91 1008.91 1008.90 1008.88
1008.95 1009.82 1010.61 1011.31 1011.92 1012.42 1012.84 1013.17 1013.42 1013.59 1013.71 1013.78 1013.81 1013.81 1013.81 1013.80 1013.77 1013.72 1013.62 1013.46 1013.19 1012.81 1012.31 1011.71 1011.03 1010.32 1009.63 1009.02 1008.53 1008.19 1008.03 1008.01 1008.11 1008.30 1008.52 1008.73 1008.91 1009.03 1009.10 1009.12 1009.12 1009.10 1009.09 1009.08
1009.50 1010.46 1011.33 1012.06 1012.65 1013.10 1013.40 1013.57 1013.65 1013.66 1013.63 1013.60 1013.59 1013.62 1013.70 1013.81 1013.95 1014.08 1014.16 1014.15 1014.02 1013.75 1013.33 1012.78 1012.15 1011.47 1010.81 1010.21 1009.72 1009.36 1009.16 1009.07 1009.09 1009.17 1009.26 1009.35 1009.41 1009.43 1009.41 1009.37 1009.33 1009.30 1009.28 1009.27
1010.25 1011.21 1012.06 1012.75 1013.28 1013.62 1013.81 1013.85 1013.80 1013.69 1013.57 1013.48 1013.46 1013.52 1013.67 1013.89 1014.15 1014.41 1014.62 1014.72 1014.70 1014.51 1014.17 1013.69 1013.12 1012.49 1011.88 1011.32 1010.86 1010.51 1010.29 1010.16 1010.10 1010.08 1010.07 1010.04 1009.98 1009.90 1009.80 1009.69 1009.61 1009.54 1009.51 1009.49
1011.09 1011.96 1012.69 1013.27 1013.68 1013.90 1013.96 1013.90 1013.75 1013.56 1013.40 1013.30 1013.30 1013.42 1013.65 1013.96 1014.32 1014.68 1014.97 1015.17 1015.21 1015.10 1014.83 1014.42 1013.92 1013.37 1012.83 1012.34 1011.92 1011.60 1011.38 1011.22 1011.11 1011.02 1010.92 1010.79 1010.63 1010.46 1010.28 1010.11 1009.98 1009.88 1009.82 1009.78
1011.87 1012.55 1013.12 1013.53 1013.77 1013.86 1013.81 1013.65 1013.45 1013.24 1013.08 1013.02 1013.08 1013.27 1013.58 1013.98 1014.42 1014.85 1015.21 1015.46 1015.57 1015.52 1015.32 1014.98 1014.56 1014.10 1013.64 1013.23 1012.88 1012.60 1012.39 1012.23 1012.09 1011.94 1011.77 1011.56 1011.33 1011.09 1010.84 1010.62 1010.44 1010.30 1010.21 1010.15
1012.44 1012.90 1013.25 1013.46 1013.54 1013.49 1013.34 1013.13 1012.92 1012.73 1012.63 1012.64 1012.78 1013.06 1013.46 1013.93 1014.44 1014.93 1015.34 1015.64 1015.80 1015.80 1015.66 1015.40 1015.06 1014.69 1014.32 1013.99 1013.71 1013.47 1013.29 1013.13 1012.97 1012.78 1012.57 1012.31 1012.03 1011.74 1011.45 1011.19 1010.97 1010.80 1010.67 1010.58
1012.70 1012.94 1013.07 1013.09 1013.01 1012.85 1012.64 1012.42 1012.24 1012.12 1012.10 1012.22 1012.47 1012.84 1013.32 1013.87 1014.43 1014.96 1015.41 1015.74 1015.93 1015.98 1015.90 1015.71 1015.45 1015.16 1014.87 1014.61 1014.39 1014.20 1014.03 1013.88 1013.71 1013.50 1013.26 1012.98 1012.68 1012.36 1012.05 1011.77 1011.53 1011.33 1011.18 1011.05
1012.64 1012.67 1012.61 1012.47 1012.28 1012.05 1011.83 1011.65 1011.53 1011.51 1011.62 1011.85 1012.21 1012.68 1013.24 1013.84 1014.44 1014.99 1015.45 1015.80 1016.02 1016.11 1016.08 1015.95 1015.76 1015.54 1015.32 1015.11 1014.93 1014.77 1014.62 1014.46 1014.29 1014.08 1013.82 1013.54 1013.23 1012.91 1012.60 1012.31 1012.07 1011.86 1011.69 1011.53
1012.29 1012.16 1011.96 1011.72 1011.47 1011.23 1011.05 1010.94 1010.93 1011.04 1011.27 1011.62 1012.09 1012.65 1013.26 1013.89 1014.51 1015.06 1015.53 1015.88 1016.12 1016.23 1016.23 1016.15 1016.01 1015.85 1015.67 1015.50 1015.35 1015.20 1015.05 1014.90 1014.71 1014.50 1014.25 1013.97 1013.67 1013.37 1013.08 1012.81 1012.57 1012.36 1012.18 1012.01
1011.75 1011.51 1011.23 1010.95 1010.69 1010.50 1010.40 1010.40 1010.52 1010.76 1011.12 1011.59 1012.15 1012.77 1013.41 1014.06 1014.67 1015.21 1015.66 1016.00 1016.23 1016.36 1016.39 1016.35 1016.25 1016.12 1015.98 1015.83 1015.68 1015.53 1015.38 1015.21 1015.02 1014.81 1014.56 1014.30 1014.03 1013.75 1013.49 1013.25 1013.03 1012.83 1012.65 1012.47
1011.13 1010.83 1010.52 1010.25 1010.04 1009.93 1009.94 1010.07 1010.33 1010.70 1011.18 1011.75 1012.37 1013.02 1013.68 1014.31 1014.89 1015.40 1015.82 1016.15 1016.38 1016.51 1016.56 1016.54 1016.48 1016.37 1016.25 1016.11 1015.96 1015.80 1015.64 1015.45 1015.26 1015.04 1014.82 1014.58 1014.34 1014.10 1013.87 1013.66 1013.47 1013.28 1013.10 1012.92
Thickness
5816 5801 5791 5797 5802 5802 5796 5788 5783 5790 5803 5794 5785 5783 5787 5791 5790 5786 5783 5781 5779 5778 5780 5779 5778 5777 5774 5770 5767 5765 5763 5762 5760 5757 5753 5751 5750 5750 5750 5750 5749 5747 5746 5745
5799 5794 5810 5815 5812 5804 5797 5786 5784 5791 5801 5792 5781 5780 5787 5790 5789 5789 5785 5782 5781 5778 5777 5777 5776 5775 5772 5769 5766 5764 5762 5761 5759 5757 5754 5752 5751 5749 5748 5748 5747 5745 5744 5743
5796 5806 5820 5814 5806 5798 5794 5788 5787 5786 5791 5789 5780 5772 5779 5787 5789 5788 5788 5787 5784 5781 5777 5776 5775 5773 5771 5769 5767 5765 5762 5761 5759 5757 5755 5752 5749 5747 5745 5744 5744 5743 5741 5740
5801 5813 5815 5809 5803 5801 5788 5803 5799 5790 5775 5762 5769 5749 5770 5778 5779 5783 5785 5785 5784 5784 5781 5777 5776 5773 5771 5770 5768 5765 5763 5761 5758 5756 5752 5748 5744 5741 5741 5741 5741 5740 5739 5737
5799 5811 5809 5803 5807 5809 5800 5805 5797 5786 5771 5758 5759 5750 5759 5773 5772 5779 5784 5786 5787 5785 5783 5780 5778 5776 5774 5772 5768 5765 5762 5759 5756 5754 5750 5746 5743 5741 5740 5739 5738 5737 5736 5735
5804 5817 5816 5813 5817 5816 5808 5796 5784 5769 5759 5743 5752 5747 5752 5765 5774 5781 5787 5789 5789 5787 5785 5782 5780 5777 5774 5771 5768 5764 5760 5756 5754 5752 5749 5745 5742 5739 5737 5736 5734 5733 5733 5732
5792 5804 5815 5819 5806 5806 5799 5773 5748 5743 5732 5736 5753 5748 5755 5780 5788 5788 5789 5790 5791 5789 5785 5780 5777 5774 5772 5769 5766 5763 5758 5754 5752 5750 5747 5744 5741 5738 5735 5733 5731 5730 5728 5728
5772 5773 5802 5811 5805 5793 5788 5775 5746 5733 5727 5733 5747 5745 5766 5789 5794 5795 5794 5792 5791 5788 5784 5781 5777 5774 5771 5768 5765 5761 5756 5753 5750 5748 5745 5743 5740 5737 5734 5732 5729 5727 5726 5725
5769 5772 5804 5811 5813 5802 5782 5769 5770 5744 5735 5729 5737 5751 5771 5789 5789 5790 5789 5788 5786 5785 5782 5779 5775 5773 5770 5767 5764 5760 5756 5752 5749 5746 5743 5740 5738 5735 5732 5730 5728 5726 5724 5722
5785 5774 5792 5804 5807 5799 5792 5774 5754 5739 5724 5722 5735 5743 5751 5772 5778 5782 5783 5782 5782 5781 5779 5776 5773 5771 5768 5766 5763 5759 5755 5751 5747 5744 5741 5738 5735 5732 5729 5727 5725 5723 5721 5719
5790 5773 5776 5786 5782 5779 5778 5767 5752 5736 5735 5721 5720 5738 5775 5776 5779 5779 5780 5780 5780 5778 5776 5773 5771 5769 5766 5763 5760 5756 5752 5747 5743 5740 5736 5734 5731 5728 5726 5724 5722 5719 5717 5716
5783 5766 5756 5771 5788 5793 5785 5772 5755 5744 5734 5726 5723 5740 5785 5783 5783 5781 5779 5779 5778 5776 5773 5771 5768 5765 5761 5758 5755 5752 5748 5744 5739 5736 5732 5729 5726 5723 5720 5719 5717 5715 5713 5712
5781 5761 5744 5750 5763 5777 5775 5769 5760 5747 5732 5721 5723 5745 5780 5780 5778 5778 5778 5776 5774 5772 5769 5765 5763 5760 5756 5753 5751 5748 5744 5740 5736 5732 5728 5724 5720 5718 5715 5713 5712 5710 5708 5707
5787 5758 5749 5742 5749 5764 5766 5767 5759 5751 5733 5727 5734 5749 5766 5772 5772 5773 5773 5772 5770 5768 5764 5761 5757 5754 5752 5750 5747 5743 5739 5737 5733 5728 5723 5719 5716 5713 5711 5709 5708 5706 5704 5702
5780 5757 5759 5761 5768 5768 5768 5767 5762 5757 5750 5742 5748 5751 5763 5770 5771 5771 5770 5768 5765 5762 5760 5757 5754 5750 5747 5745 5743 5739 5735 5732 5729 5724 5719 5716 5713 5709 5707 5704 5702 5700 5698 5697
5766 5756 5755 5756 5763 5763 5762 5766 5765 5762 5758 5754 5754 5756 5771 5772 5770 5768 5766 5763 5760 5758 5757 5755 5751 5747 5744 5742 5739 5736 5732 5729 5725 5720 5716 5713 5709 5706 5702 5699 5697 5694 5693 5691
5752 5749 5740 5736 5748 5754 5744 5758 5760 5760 5761 5757 5751 5760 5768 5765 5764 5764 5763 5760 5758 5757 5755 5751 5748 5745 5742 5739 5735 5731 5728 5724 5719 5715 5711 5708 5704 5701 5698 5695 5692 5689 5687 5684
5746 5736 5725 5724 5734 5724 5745 5767 5767 5761 5760 5762 5763 5764 5766 5765 5765 5764 5763 5759 5756 5755 5752 5749 5746 5743 5739 5735 5731 5727 5723 5718 5715 5711 5707 5704 5700 5697 5694 5690 5687 5684 5681 5678
5746 5735 5719 5711 5714 5725 5746 5762 5762 5754 5752 5761 5759 5761 5761 5761 5759 5757 5761 5759 5756 5754 5751 5748 5744 5740 5735 5730 5726 5722 5717 5714 5710 5707 5703 5699 5696 5692 5688 5685 5682 5679 5676 5673
5734 5731 5718 5708 5712 5711 5739 5761 5767 5757 5742 5760 5759 5757 5754 5753 5740 5745 5758 5756 5753 5751 5747 5743 5739 5734 5729 5725 5721 5716 5711 5708 5705 5702 5698 5695 5691 5687 5684 5680 5677 5674 5671 5668
5720 5714 5709 5705 5708 5718 5746 5758 5759 5733 5739 5759 5758 5755 5751 5747 5747 5751 5754 5751 5748 5745 5742 5738 5733 5728 5724 5720 5715 5710 5706 5703 5701 5698 5694 5690 5687 5683 5679 5675 5672 5669 5665 5662
5709 5705 5700 5698 5702 5713 5748 5749 5742 5743 5754 5756 5754 5752 5749 5747 5748 5748 5747 5745 5742 5738 5736 5732 5726 5721 5717 5714 5710 5705 5701 5699 5696 5692 5688 5684 5681 5678 5675 5670 5666 5662 5660 5656
5704 5708 5705 5707 5713 5729 5739 5744 5749 5749 5749 5751 5750 5749 5747 5744 5742 5741 5739 5737 5735 5732 5729 5725 5720 5715 5711 5708 5704 5699 5697 5694 5689 5685 5682 5679 5675 5671 5667 5663 5659 5656 5653 5649
5704 5706 5703 5706 5717 5727 5733 5738 5744 5746 5746 5748 5748 5746 5743 5739 5737 5733 5731 5729 5727 5725 5721 5718 5714 5709 5704 5701 5699 5696 5692 5687 5683 5679 5675 5672 5668 5665 5661 5657 5653 5650 5647 5643
5698 5699 5696 5699 5711 5719 5727 5731 5734 5737 5740 5741 5740 5739 5737 5734 5730 5727 5724 5722 5721 5718 5715 5711 5707 5703 5699 5696 5693 5690 5686 5681 5677 5673 5668 5665 5661 5658 5654 5650 5647 5645 5642 5639
5690 5692 5691 5695 5706 5706 5714 5724 5728 5728 5729 5731 5730 5729 5729 5728 5724 5722 5719 5717 5714 5711 5707 5703 5699 5695 5692 5689 5686 5684 5680 5676 5671 5666 5663 5659 5655 5651 5647 5644 5641 5639 5636 5634